Weather History for Fitchburg, MA

Change the Weather History Date:

Tuesday, June 11, 2013

  Actual Average (KORH) Record (KORH)
Temperature  
Mean Temperature 58 °F 64 °F  
Max Temperature 62 °F 73 °F 91 °F (1984)
Min Temperature 55 °F 55 °F 37 °F (1980)
Degree Days  
Heating Degree Days 6 3  
Month to date heating degree days 48  
Since 1 June heating degree days 48  
Since 1 July heating degree days 6682  
Cooling Degree Days 0 2  
Month to date cooling degree days 19  
Year to date cooling degree days 41  
Since 1 June cooling degree days 19  
Growing Degree Days 8 (Base 50)    
Moisture  
Dew Point 56 °F    
Average Humidity 91    
Maximum Humidity 97    
Minimum Humidity 80    
Precipitation  
Precipitation 1.03 in 0.15 in 1.42 in (1922)
Month to date precipitation 1.70  
Year to date precipitation 20.93  
Sea Level Pressure  
Sea Level Pressure 29.74 in    
Wind  
Wind Speed 5 mph (NE)    
Max Wind Speed 9 mph    
Max Gust Speed -    
Visibility 5 miles    
Events Rain    
T = Trace of Precipitation, MM = Missing Value Source: NWS Daily Summary

Daily Weather History Graph

Daily Weather History Graph

Search for Another Location

Airport:

Trip Planner

Search our weather history database for the weather conditions in past years. The results will help you decide how hot, cold, wet, or windy it might be!

Date:

Astronomy

Jun. 11, 2013 Rise Set
Actual Time 5:09 AM EDT 8:24 PM EDT
Civil Twilight 4:34 AM EDT 8:59 PM EDT
Nautical Twilight 3:49 AM EDT 9:44 PM EDT
Astronomical Twilight 2:54 AM EDT 10:39 PM EDT
Moon 7:52 AM EDT (6/11) 10:22 PM EDT (6/11)
Length of Visible Light 16h 25m
Length of Day
15h 15m
Waxing Crescent, 8% of the Moon is Illuminated
Jun 11
Waxing Crescent
Jun 16
First Quarter
Jun 23
Full
Jun 30
Last Quarter
Jul 8
New

Hourly Weather History & Observations

Time (EDT) Temp. Dew Point Humidity Pressure Visibility Wind Dir Wind Speed Gust Speed Precip Events Conditions
12:52 AM 57.9 °F 57.0 °F 97% 29.99 in 6.0 mi East 6.9 mph - 0.05 in Rain Light Rain
1:31 AM 57.2 °F 55.4 °F 94% 29.96 in 2.5 mi ESE 9.2 mph - 0.10 in Rain Heavy Rain
1:40 AM 57.2 °F 55.4 °F 94% 29.96 in 5.0 mi Variable 3.5 mph - 0.11 in Rain Rain
1:52 AM 57.9 °F 55.9 °F 93% 29.96 in 5.0 mi ESE 4.6 mph - 0.15 in Rain Rain
2:52 AM 57.9 °F 55.9 °F 93% 29.92 in 4.0 mi East 5.8 mph - 0.04 in Rain Light Rain
3:23 AM 57.2 °F 55.4 °F 94% 29.91 in 4.0 mi ESE 6.9 mph - 0.04 in Rain Light Rain
3:30 AM 57.2 °F 55.4 °F 94% 29.90 in 4.0 mi Variable 4.6 mph - 0.05 in Rain Light Rain
3:40 AM 57.2 °F 55.4 °F 94% 29.90 in 2.5 mi Variable 5.8 mph - 0.12 in Rain Heavy Rain
3:43 AM 57.2 °F 55.4 °F 94% 29.90 in 1.8 mi East 8.1 mph - 0.16 in Rain Heavy Rain
3:48 AM 57.2 °F 55.4 °F 94% 29.89 in 2.0 mi East 5.8 mph - 0.19 in Rain Heavy Rain
3:52 AM 57.0 °F 55.0 °F 93% 29.89 in 3.0 mi East 3.5 mph - 0.20 in Rain Heavy Rain
4:02 AM 57.2 °F 55.4 °F 94% 29.88 in 4.0 mi East 3.5 mph - 0.02 in Rain Rain
4:41 AM 57.2 °F 53.6 °F 88% 29.86 in 5.0 mi Variable 4.6 mph - 0.10 in Rain Rain
4:52 AM 57.0 °F 55.0 °F 93% 29.86 in 9.0 mi NE 3.5 mph - 0.12 in Rain Light Rain
5:46 AM 57.2 °F 53.6 °F 88% 29.84 in 1.8 mi Calm Calm - 0.04 in Rain Light Rain
5:47 AM 57.0 °F 55.0 °F 93% 29.84 in 1.8 mi Calm Calm - 0.04 in Rain Light Rain
6:20 AM 55.4 °F 53.6 °F 94% 29.82 in 2.0 mi NNE 6.9 mph - 0.01 in Rain Light Rain
6:41 AM 55.4 °F 53.6 °F 94% 29.81 in 3.0 mi Variable 4.6 mph - 0.02 in Rain Light Rain
6:52 AM 55.9 °F 54.0 °F 93% 29.81 in 6.0 mi North 5.8 mph - 0.02 in Rain Light Rain
7:52 AM 55.9 °F 53.1 °F 90% 29.79 in 10.0 mi NNE 5.8 mph - 0.03 in   Overcast
8:52 AM 55.9 °F 54.0 °F 93% 29.77 in 4.0 mi North 6.9 mph - 0.01 in Rain Light Rain
9:52 AM 57.0 °F 54.0 °F 89% 29.75 in 7.0 mi North 8.1 mph - 0.00 in   Overcast
10:52 AM 57.9 °F 55.0 °F 90% 29.74 in 4.0 mi North 6.9 mph - N/A   Overcast
11:31 AM 59.0 °F 55.4 °F 88% 29.73 in 10.0 mi North 6.9 mph - N/A   Overcast
11:52 AM 59.0 °F 55.0 °F 87% 29.73 in 9.0 mi North 8.1 mph - N/A   Overcast
12:52 PM 60.1 °F 55.0 °F 83% 29.73 in 10.0 mi North 4.6 mph - N/A   Overcast
1:52 PM 62.1 °F 55.9 °F 80% 29.71 in 10.0 mi ENE 4.6 mph - N/A   Overcast
2:52 PM 62.1 °F 55.9 °F 80% 29.69 in 10.0 mi ENE 3.5 mph - N/A   Overcast
3:52 PM 62.1 °F 55.9 °F 80% 29.67 in 10.0 mi NE 6.9 mph - N/A   Overcast
4:52 PM 61.0 °F 55.9 °F 83% 29.64 in 10.0 mi NE 3.5 mph - N/A   Overcast
5:52 PM 60.1 °F 55.9 °F 86% 29.62 in 6.0 mi NE 3.5 mph - 0.02 in Rain Rain
6:25 PM 59.0 °F 55.4 °F 88% 29.61 in 3.0 mi Calm Calm - 0.06 in Rain Rain
6:34 PM 59.0 °F 57.2 °F 94% 29.61 in 2.0 mi NW 6.9 mph - 0.10 in Rain Heavy Rain
6:38 PM 59.0 °F 57.2 °F 94% 29.61 in 2.5 mi NW 5.8 mph - 0.11 in Rain Rain
6:47 PM 59.0 °F 57.2 °F 94% 29.60 in 1.2 mi Calm Calm - 0.18 in Rain Heavy Rain
6:49 PM 59.0 °F 57.2 °F 94% 29.60 in 1.0 mi Calm Calm - 0.22 in Rain Heavy Rain
6:52 PM 57.9 °F 57.0 °F 97% 29.61 in 1.0 mi Calm Calm - 0.24 in Rain Heavy Rain
6:58 PM 57.2 °F 55.4 °F 94% 29.60 in 1.5 mi NE 3.5 mph - 0.02 in Rain Heavy Rain
7:02 PM 59.0 °F 57.2 °F 94% 29.60 in 3.0 mi Calm Calm - 0.03 in Rain Rain
7:04 PM 59.0 °F 57.2 °F 94% 29.60 in 3.0 mi Calm Calm - 0.03 in Rain Rain
7:24 PM 59.0 °F 57.2 °F 94% 29.60 in 10.0 mi Calm Calm - 0.04 in Rain Light Rain
7:39 PM 59.0 °F 55.4 °F 88% 29.61 in 1.8 mi Calm Calm - 0.07 in Rain Rain
7:52 PM 59.0 °F 57.0 °F 93% 29.62 in 2.5 mi Calm Calm - 0.10 in Rain Light Rain
7:57 PM 59.0 °F 57.2 °F 94% 29.62 in 4.0 mi Calm Calm - 0.00 in Rain Light Rain
8:52 PM 59.0 °F 55.9 °F 90% 29.61 in 9.0 mi Calm Calm - 0.00 in   Overcast
9:24 PM 57.2 °F 55.4 °F 94% 29.61 in 6.0 mi Calm Calm - N/A   Overcast
9:52 PM 57.9 °F 55.9 °F 93% 29.62 in 6.0 mi Calm Calm - 0.01 in Rain Light Rain
10:17 PM 57.2 °F 55.4 °F 94% 29.62 in 5.0 mi Calm Calm - 0.00 in Rain Light Rain
10:52 PM 57.9 °F 55.9 °F 93% 29.61 in 9.0 mi Calm Calm - 0.00 in Rain Light Rain
11:52 PM 57.9 °F 55.9 °F 93% 29.60 in 10.0 mi Calm Calm - 0.00 in   Overcast